Washington County, Wisconsin, United States
Lat: 43.37N, Lon: 88.22W
Wx Zone: WIZ059
Local Info
Past Weather Observations for Today

NOTE: This archive is for the closest National Weather Service station to Washington County. Information may differ from the station used for current weather conditions.

Click here for Long-term Archive

Time Weather Temperature Dewpoint Humidity Pressure Winds Precip Visibility
19:55
Clear
61°F / 16°C 57°F / 14°C 88% 29.92 in
(1013 mb)
Calm - 10SM
19:35
Clear
63°F / 17°C 57°F / 14°C 83% 29.92 in
(1013 mb)
Calm - 10SM
19:15
Clear
63°F / 17°C 57°F / 14°C 83% 29.92 in
(1013 mb)
Calm - 10SM
18:55
Clear
63°F / 17°C 57°F / 14°C 83% 29.92 in
(1013 mb)
Calm - 10SM
18:35
Clear
66°F / 19°C 57°F / 14°C 73% 29.89 in
(1012 mb)
Calm - 10SM
18:15
Clear
70°F / 21°C 54°F / 12°C 57% 29.89 in
(1012 mb)
Calm - 10SM
17:55
Clear
72°F / 22°C 54°F / 12°C 53% 29.89 in
(1012 mb)
SSW 4.6 mph
(SSW 7 kph)
- 10SM
17:35
Clear
72°F / 22°C 55°F / 13°C 57% 29.89 in
(1012 mb)
SSW 5.8 mph
(SSW 9 kph)
- 10SM
17:15
Clear
73°F / 23°C 54°F / 12°C 50% 29.89 in
(1012 mb)
SSW 6.9 mph
(SSW 11 kph)
- 10SM
16:55
Clear
73°F / 23°C 54°F / 12°C 50% 29.89 in
(1012 mb)
SSW 9.2 mph
(SSW 15 kph)
- 10SM
16:35
Partly Cloudy
73°F / 23°C 55°F / 13°C 53% 29.89 in
(1012 mb)
W 6.9 mph
(W 11 kph)
- 10SM
16:15
Mostly Cloudy
72°F / 22°C 55°F / 13°C 57% 29.92 in
(1013 mb)
SSW 4.6 mph
(SSW 7 kph)
- 10SM
15:55
Overcast
72°F / 22°C 55°F / 13°C 57% 29.92 in
(1013 mb)
SSW 5.8 mph
(SSW 9 kph)
- 10SM
15:35
Overcast
72°F / 22°C 55°F / 13°C 57% 29.92 in
(1013 mb)
SSW 6.9 mph
(SSW 11 kph)
- 10SM
15:15
Partly Cloudy
73°F / 23°C 54°F / 12°C 50% 29.92 in
(1013 mb)
SW 5.8 mph
(SW 9 kph)
- 10SM
14:55
Clear
75°F / 24°C 54°F / 12°C 47% 29.92 in
(1013 mb)
SSW 10.4 mph
(SSW 17 kph)
- 10SM
14:35
Partly Cloudy
77°F / 25°C 55°F / 13°C 47% 29.92 in
(1013 mb)
SSW 9.2 mph
(SSW 15 kph)
- 10SM
14:15
Partly Cloudy
73°F / 23°C 59°F / 15°C 61% 29.92 in
(1013 mb)
W 5.8 mph
(W 9 kph)
- 10SM
13:55
Partly Cloudy
73°F / 23°C 59°F / 15°C 61% 29.92 in
(1013 mb)
SSW 4.6 mph
(SSW 7 kph)
- 10SM
13:35
Mostly Cloudy
73°F / 23°C 57°F / 14°C 57% 29.92 in
(1013 mb)
W 5.8 mph
(W 9 kph)
- 10SM
13:15
Overcast
73°F / 23°C 59°F / 15°C 61% 29.92 in
(1013 mb)
SSW 8.1 mph
(SSW 13 kph)
- 10SM
12:55
Overcast
73°F / 23°C 57°F / 14°C 57% 29.92 in
(1013 mb)
SSW 10.4 mph
(SSW 17 kph)
- 10SM
12:35
Overcast
72°F / 22°C 59°F / 15°C 65% 29.92 in
(1013 mb)
W 10.4 mph
(W 17 kph)
- 10SM
12:15
Mostly Cloudy
72°F / 22°C 55°F / 13°C 57% 29.92 in
(1013 mb)
W 10.4 mph
(W 17 kph)
- 10SM
11:55
Partly Cloudy
72°F / 22°C 57°F / 14°C 61% 29.92 in
(1013 mb)
SSW 9.2 mph
(SSW 15 kph)
- 10SM
11:35
Clear
72°F / 22°C 59°F / 15°C 65% 29.92 in
(1013 mb)
SSW 8.1 mph
(SSW 13 kph)
- 10SM
11:15
Clear
72°F / 22°C 57°F / 14°C 61% 29.92 in
(1013 mb)
SSW 10.4 mph
(SSW 17 kph)
- 10SM
10:55
Clear
72°F / 22°C 57°F / 14°C 61% 29.92 in
(1013 mb)
SSW 8.1 mph
(SSW 13 kph)
- 10SM
10:35
Clear
70°F / 21°C 57°F / 14°C 64% 29.92 in
(1013 mb)
SSW 8.1 mph
(SSW 13 kph)
- 10SM
10:15
Clear
70°F / 21°C 57°F / 14°C 64% 29.92 in
(1013 mb)
SSW 5.8 mph
(SSW 9 kph)
- 10SM
09:55
Clear
70°F / 21°C 59°F / 15°C 69% 29.89 in
(1012 mb)
SSW 4.6 mph
(SSW 7 kph)
- 10SM
09:35
Clear
70°F / 21°C 57°F / 14°C 64% 29.89 in
(1012 mb)
SSW 5.8 mph
(SSW 9 kph)
- 10SM
09:15
Clear
70°F / 21°C 59°F / 15°C 69% 29.92 in
(1013 mb)
SW 6.9 mph
(SW 11 kph)
- 10SM
08:55
Clear
70°F / 21°C 59°F / 15°C 69% 29.89 in
(1012 mb)
SW 3.5 mph
(SW 6 kph)
- 10SM
08:35
Clear
68°F / 20°C 59°F / 15°C 73% 29.89 in
(1012 mb)
SSW 4.6 mph
(SSW 7 kph)
- 10SM
08:15
Clear
68°F / 20°C 59°F / 15°C 73% 29.89 in
(1012 mb)
SSW 4.6 mph
(SSW 7 kph)
- 10SM
07:55
Clear
68°F / 20°C 59°F / 15°C 73% 29.89 in
(1012 mb)
W 4.6 mph
(W 7 kph)
- 10SM
07:35
Clear
64°F / 18°C 59°F / 15°C 83% 29.89 in
(1012 mb)
W 4.6 mph
(W 7 kph)
- 10SM
07:15
Clear
63°F / 17°C 63°F / 17°C 100% 29.89 in
(1012 mb)
Calm - 10SM
06:55
Clear
61°F / 16°C 59°F / 15°C 94% 29.89 in
(1012 mb)
Calm - 10SM
06:35
Clear
59°F / 15°C 57°F / 14°C 94% 29.89 in
(1012 mb)
Calm - 10SM
06:15
Partly Cloudy
57°F / 14°C 55°F / 13°C 94% 29.89 in
(1012 mb)
Calm - 10SM
05:50
Mostly Cloudy
Fog
55°F / 13°C 54°F / 12°C 94% 29.89 in
(1012 mb)
Calm - 1/4SM
05:35
Mostly Cloudy
Fog
55°F / 13°C 54°F / 12°C 94% 29.89 in
(1012 mb)
Calm - 1/4SM
05:15
Partly Cloudy
Fog And Mist
55°F / 13°C 55°F / 13°C 100% 29.89 in
(1012 mb)
Calm - 1 1/2SM
04:55
Mostly Cloudy
Fog
55°F / 13°C 55°F / 13°C 100% 29.89 in
(1012 mb)
Calm - 1/2SM
04:35
Obscured
Fog And Mist
57°F / 14°C 55°F / 13°C 94% 29.89 in
(1012 mb)
Calm - 3/4SM
04:15
Partly Cloudy
Fog And Mist
57°F / 14°C 55°F / 13°C 94% 29.86 in
(1011 mb)
Calm - 3/4SM
03:55
Obscured
Fog
59°F / 15°C 55°F / 13°C 88% 29.89 in
(1012 mb)
Calm - 1/2SM
03:35
Clear
59°F / 15°C 57°F / 14°C 94% 29.89 in
(1012 mb)
Calm - 7SM
03:15
Mostly Cloudy
Fog
59°F / 15°C 57°F / 14°C 94% 29.86 in
(1011 mb)
Calm - 1/2SM
02:55
Obscured
Fog
59°F / 15°C 57°F / 14°C 94% 29.86 in
(1011 mb)
Calm - 1/2SM
02:35
Clear
Fog And Mist
59°F / 15°C 57°F / 14°C 94% 29.86 in
(1011 mb)
Calm - 5SM
02:15
Obscured
Fog And Mist
59°F / 15°C 57°F / 14°C 94% 29.86 in
(1011 mb)
Calm - 1 1/4SM
01:55
Clear
Fog And Mist
61°F / 16°C 59°F / 15°C 94% 29.86 in
(1011 mb)
Calm - 4SM
01:35
Clear
Fog And Mist
61°F / 16°C 57°F / 14°C 88% 29.86 in
(1011 mb)
Calm - 4SM
01:15
Clear
61°F / 16°C 59°F / 15°C 94% 29.83 in
(1010 mb)
Calm - 7SM
00:55
Clear
61°F / 16°C 59°F / 15°C 94% 29.86 in
(1011 mb)
Calm - 10SM
00:35
Clear
63°F / 17°C 59°F / 15°C 88% 29.86 in
(1011 mb)
Calm - 10SM
00:15
Clear
63°F / 17°C 59°F / 15°C 88% 29.86 in
(1011 mb)
Calm - 10SM
Time Weather Temperature Dewpoint Humidity Pressure Winds Precip Visibility


Weather for websites

WeatherForYou.com, LLC is not responsible for any damages or problems caused by this service. Current weather conditions are obtained from the closest station including government and personal stations which may have varying degrees of accuracy. Weather forecasts are derived from the NOAA NDFD. Like all things, this site belongs to Jesus Christ... He just trusts me to maintain it. If you have any questions or comments email webmaster@weatherforyou.com

Copyright © 2014, WeatherForYou.com LLC. All rights reserved.